| time (UTC) | temp F | wind direction | speed MPH | gust MPH | rain 1hr in | rain 24hr in | rain mn in | humidity % | barometer mb |
| 20260903093531 | 52 | 51 | 0.0 | 1.0 | 0.00 | 0.21 | 0.00 | 86 | 1010.3 |
| 20260903093034 | 52 | 51 | 0.0 | 1.0 | 0.00 | 0.21 | 0.00 | 86 | 1010.3 |
| 20260903092528 | 52 | 51 | 0.0 | 2.0 | 0.00 | 0.21 | 0.00 | 86 | 1010.3 |
| 20260903092029 | 52 | 51 | 0.0 | 3.0 | 0.00 | 0.21 | 0.00 | 86 | 1010.3 |
| 20260903091530 | 52 | 51 | 1.0 | 3.0 | 0.00 | 0.21 | 0.00 | 86 | 1010.3 |
| 20260903091028 | 52 | 51 | 0.0 | 2.0 | 0.00 | 0.21 | 0.00 | 86 | 1010.3 |
| 20260903090527 | 52 | 51 | 0.0 | 3.0 | 0.00 | 0.21 | 0.00 | 86 | 1010.3 |
| 20260903090028 | 52 | 51 | 1.0 | 3.0 | 0.00 | 0.21 | 0.00 | 86 | 1010.3 |
| 20260903085526 | 52 | 51 | 0.0 | 3.0 | 0.00 | 0.21 | 0.00 | 86 | 1010.3 |
| 20260903085026 | 52 | 51 | 0.0 | 3.0 | 0.00 | 0.21 | 0.00 | 86 | 1010.2 |
| 20260903084527 | 52 | 51 | 0.0 | 1.0 | 0.00 | 0.21 | 0.00 | 86 | 1010.2 |
| 20260903084027 | 52 | 51 | 0.0 | 4.0 | 0.00 | 0.21 | 0.00 | 86 | 1010.2 |
| 20260903083526 | 52 | 51 | 1.0 | 4.0 | 0.00 | 0.21 | 0.00 | 86 | 1010.2 |
| 20260903083034 | 52 | 7 | 0.0 | 2.0 | 0.00 | 0.21 | 0.00 | 85 | 1010.2 |
| 20260903082525 | 52 | 7 | 0.0 | 2.0 | 0.00 | 0.21 | 0.00 | 85 | 1010.2 |
| 20260903082025 | 52 | 7 | 0.0 | 2.0 | 0.00 | 0.21 | 0.00 | 85 | 1010.2 |
| 20260903081525 | 52 | 7 | 0.0 | 2.0 | 0.00 | 0.21 | 0.00 | 85 | 1010.1 |
| 20260903081025 | 52 | 6 | 0.0 | 2.0 | 0.00 | 0.21 | 0.00 | 85 | 1010.0 |
| 20260903080527 | 52 | 6 | 0.0 | 3.0 | 0.00 | 0.21 | 0.00 | 85 | 1010.1 |
| 20260903080027 | 52 | 6 | 1.0 | 3.0 | 0.00 | 0.21 | 0.00 | 85 | 1010.1 |
| 20260903075524 | 52 | 6 | 0.0 | 4.0 | 0.00 | 0.21 | 0.00 | 85 | 1010.1 |
| 20260903075022 | 52 | 10 | 0.0 | 4.0 | 0.00 | 0.21 | 0.00 | 85 | 1010.0 |
| 20260903074522 | 53 | 186 | 0.0 | 3.0 | 0.00 | 0.21 | 0.00 | 85 | 1009.9 |
| 20260903074021 | 52 | 196 | 1.0 | 3.0 | 0.00 | 0.21 | 0.00 | 85 | 1009.8 |
| 20260903073520 | 52 | 333 | 0.0 | 6.0 | 0.00 | 0.21 | 0.00 | 85 | 1009.8 |
| 20260903073032 | 52 | 333 | 1.0 | 6.0 | 0.00 | 0.21 | 0.00 | 85 | 1009.7 |
| 20260903072521 | 52 | 58 | 1.0 | 2.0 | 0.00 | 0.21 | 0.00 | 85 | 1009.5 |
| 20260903072018 | 52 | 58 | 1.0 | 2.0 | 0.00 | 0.21 | 0.00 | 85 | 1009.6 |
| 20260903071518 | 52 | 58 | 0.0 | 4.0 | 0.00 | 0.21 | 0.00 | 85 | 1009.6 |
| 20260903071016 | 53 | 58 | 0.0 | 4.0 | 0.00 | 0.21 | 0.00 | 84 | 1009.6 |
| 20260903070515 | 53 | 342 | 1.0 | 4.0 | 0.00 | 0.21 | 0.00 | 85 | 1009.7 |
| 20260903070014 | 53 | 210 | 0.0 | 2.0 | 0.00 | 0.21 | 0.21 | 84 | 1009.7 |
| 20260903065515 | 53 | 206 | 0.0 | 5.0 | 0.00 | 0.21 | 0.21 | 84 | 1009.6 |
| 20260903065013 | 53 | 211 | 1.0 | 5.0 | 0.00 | 0.21 | 0.21 | 84 | 1009.6 |
| 20260903064518 | 53 | 268 | 0.0 | 8.0 | 0.00 | 0.21 | 0.21 | 83 | 1009.6 |
| 20260903064016 | 54 | 267 | 2.0 | 8.0 | 0.00 | 0.21 | 0.21 | 83 | 1009.6 |
| 20260903063513 | 54 | 238 | 0.0 | 7.0 | 0.00 | 0.21 | 0.21 | 84 | 1009.6 |
| 20260903063012 | 54 | 256 | 4.0 | 8.0 | 0.00 | 0.21 | 0.21 | 84 | 1009.6 |
| 20260903062511 | 54 | 255 | 0.0 | 4.0 | 0.00 | 0.21 | 0.21 | 84 | 1009.7 |
| 20260903062010 | 54 | 255 | 1.0 | 4.0 | 0.00 | 0.21 | 0.21 | 84 | 1009.7 |
| 20260903061513 | 54 | 255 | 0.0 | 3.0 | 0.00 | 0.21 | 0.21 | 84 | 1009.7 |
| 20260903061009 | 54 | 255 | 0.0 | 3.0 | 0.00 | 0.21 | 0.21 | 83 | 1009.7 |
| 20260903060509 | 55 | 255 | 0.0 | 4.0 | 0.00 | 0.21 | 0.21 | 83 | 1009.6 |
| 20260903060014 | 55 | 255 | 0.0 | 4.0 | 0.00 | 0.21 | 0.21 | 84 | 1009.7 |
| 20260903055509 | 55 | 255 | 1.0 | 7.0 | 0.00 | 0.21 | 0.21 | 84 | 1009.7 |
| 20260903055008 | 55 | 259 | 2.0 | 7.0 | 0.00 | 0.21 | 0.21 | 85 | 1009.7 |
| 20260903054509 | 55 | 273 | 0.0 | 4.0 | 0.00 | 0.21 | 0.21 | 85 | 1009.7 |
| 20260903054011 | 55 | 349 | 0.0 | 2.0 | 0.00 | 0.21 | 0.21 | 85 | 1009.6 |
| 20260903053508 | 54 | 349 | 0.0 | 3.0 | 0.00 | 0.21 | 0.21 | 85 | 1009.6 |
| 20260903053008 | 54 | 349 | 0.0 | 3.0 | 0.00 | 0.21 | 0.21 | 85 | 1009.5 |
| 20260903052509 | 55 | 349 | 0.0 | 2.0 | 0.00 | 0.21 | 0.21 | 84 | 1009.5 |
| 20260903052008 | 55 | 349 | 0.0 | 3.0 | 0.00 | 0.21 | 0.21 | 84 | 1009.4 |
| 20260903051507 | 55 | 349 | 0.0 | 3.0 | 0.00 | 0.21 | 0.21 | 84 | 1009.4 |
| 20260903051010 | 55 | 302 | 0.0 | 3.0 | 0.00 | 0.21 | 0.21 | 84 | 1009.4 |
| 20260903050509 | 55 | 302 | 0.0 | 5.0 | 0.00 | 0.21 | 0.21 | 84 | 1009.4 |
| 20260903050007 | 55 | 277 | 0.0 | 5.0 | 0.00 | 0.21 | 0.21 | 84 | 1009.3 |
| 20260903045507 | 55 | 349 | 0.0 | 6.0 | 0.00 | 0.21 | 0.21 | 84 | 1009.3 |
| 20260903045006 | 55 | 343 | 1.0 | 5.0 | 0.00 | 0.21 | 0.21 | 84 | 1009.2 |
| 20260903044508 | 55 | 348 | 0.0 | 5.0 | 0.00 | 0.21 | 0.21 | 84 | 1009.2 |
| 20260903044006 | 55 | 191 | 1.0 | 5.0 | 0.00 | 0.21 | 0.21 | 84 | 1009.2 |
| 20260903043505 | 55 | 254 | 0.0 | 5.0 | 0.00 | 0.21 | 0.21 | 84 | 1009.2 |
| 20260903043006 | 55 | 249 | 0.0 | 3.0 | 0.00 | 0.21 | 0.21 | 84 | 1009.2 |
| 20260903042506 | 55 | 248 | 0.0 | 5.0 | 0.00 | 0.21 | 0.21 | 84 | 1009.1 |
| 20260903042006 | 55 | 248 | 1.0 | 8.0 | 0.00 | 0.21 | 0.21 | 84 | 1008.9 |
| 20260903041506 | 55 | 251 | 2.0 | 8.0 | 0.00 | 0.21 | 0.21 | 84 | 1008.8 |
| 20260903041005 | 54 | 266 | 0.0 | 2.0 | 0.00 | 0.21 | 0.21 | 84 | 1008.6 |
| 20260903040505 | 55 | 266 | 0.0 | 7.0 | 0.00 | 0.21 | 0.21 | 84 | 1008.6 |
| 20260903040008 | 54 | 191 | 0.0 | 7.0 | 0.00 | 0.21 | 0.21 | 83 | 1008.5 |
| 20260903035504 | 55 | 269 | 0.0 | 4.0 | 0.00 | 0.21 | 0.21 | 83 | 1008.5 |
| 20260903035004 | 55 | 315 | 0.0 | 4.0 | 0.00 | 0.21 | 0.21 | 83 | 1008.4 |
| 20260903034503 | 55 | 250 | 0.0 | 4.0 | 0.00 | 0.21 | 0.21 | 84 | 1008.3 |
| 20260903034002 | 55 | 360 | 0.0 | 6.0 | 0.00 | 0.21 | 0.21 | 84 | 1008.4 |
| 20260903033503 | 55 | 360 | 1.0 | 6.0 | 0.00 | 0.21 | 0.21 | 84 | 1008.3 |
| 20260903033002 | 55 | 350 | 1.0 | 8.0 | 0.00 | 0.21 | 0.21 | 84 | 1008.3 |
| 20260903032502 | 55 | 28 | 1.0 | 8.0 | 0.00 | 0.21 | 0.21 | 84 | 1008.3 |
| 20260903032001 | 56 | 350 | 1.0 | 9.0 | 0.00 | 0.21 | 0.21 | 84 | 1008.2 |
| 20260903031501 | 56 | 337 | 2.0 | 9.0 | 0.00 | 0.21 | 0.21 | 84 | 1008.2 |
| 20260903031000 | 56 | 191 | 0.0 | 5.0 | 0.01 | 0.21 | 0.21 | 84 | 1008.2 |
| 20260903030602 | 56 | 242 | 0.0 | 4.0 | 0.01 | 0.21 | 0.21 | 84 | 1008.0 |
| 20260903030502 | 56 | 4 | 0.0 | 4.0 | 0.01 | 0.21 | 0.21 | 84 | 1008.0 |
| 20260903030101 | 56 | 344 | 0.0 | 5.0 | 0.02 | 0.21 | 0.21 | 84 | 1007.9 |
| 20260903025601 | 56 | 320 | 1.0 | 5.0 | 0.03 | 0.21 | 0.21 | 84 | 1007.9 |
| 20260903025059 | 56 | 22 | 0.0 | 5.0 | 0.06 | 0.21 | 0.21 | 85 | 1007.9 |
| 20260903024558 | 56 | 335 | 0.0 | 5.0 | 0.06 | 0.21 | 0.21 | 85 | 1008.0 |
| 20260903024058 | 56 | 271 | 0.0 | 8.0 | 0.06 | 0.21 | 0.21 | 85 | 1008.0 |
| 20260903023557 | 57 | 260 | 0.0 | 7.0 | 0.07 | 0.21 | 0.21 | 85 | 1007.9 |
| 20260903023120 | 57 | 191 | 0.0 | 7.0 | 0.07 | 0.21 | 0.21 | 85 | 1007.8 |
| 20260903022557 | 57 | 252 | 1.0 | 5.0 | 0.07 | 0.21 | 0.21 | 85 | 1007.9 |
| 20260903022100 | 57 | 250 | 0.0 | 4.0 | 0.07 | 0.21 | 0.21 | 85 | 1007.8 |
| 20260903021557 | 57 | 246 | 0.0 | 4.0 | 0.07 | 0.21 | 0.21 | 85 | 1007.8 |
| 20260903021056 | 57 | 262 | 2.0 | 7.0 | 0.06 | 0.20 | 0.20 | 85 | 1007.8 |
| 20260903020556 | 57 | 191 | 1.0 | 4.0 | 0.06 | 0.20 | 0.20 | 85 | 1007.7 |
| 20260903020058 | 58 | 55 | 0.0 | 4.0 | 0.05 | 0.19 | 0.19 | 85 | 1007.6 |
| 20260903015556 | 58 | 53 | 1.0 | 3.0 | 0.04 | 0.18 | 0.18 | 85 | 1007.5 |
| 20260903015055 | 57 | 359 | 0.0 | 3.0 | 0.02 | 0.15 | 0.15 | 85 | 1007.7 |
| 20260903014601 | 58 | 359 | 1.0 | 3.0 | 0.02 | 0.15 | 0.15 | 85 | 1007.5 |
| 20260903014055 | 58 | 359 | 0.0 | 1.0 | 0.02 | 0.15 | 0.15 | 85 | 1007.4 |
| 20260903013556 | 58 | 359 | 0.0 | 1.0 | 0.01 | 0.14 | 0.14 | 85 | 1007.4 |
| 20260903013055 | 58 | 359 | 0.0 | 1.0 | 0.01 | 0.14 | 0.14 | 85 | 1007.3 |
| 20260903012558 | 58 | 359 | 0.0 | 3.0 | 0.02 | 0.14 | 0.14 | 85 | 1007.3 |
| 20260903012054 | 57 | 359 | 0.0 | 3.0 | 0.02 | 0.14 | 0.14 | 84 | 1007.3 |
| 20260903011602 | 58 | 359 | 0.0 | 0.0 | 0.03 | 0.14 | 0.14 | 85 | 1007.3 |
| 20260903011055 | 58 | 359 | 0.0 | 1.0 | 0.04 | 0.14 | 0.14 | 85 | 1007.2 |
| 20260903010554 | 58 | 359 | 0.0 | 0.0 | 0.04 | 0.14 | 0.14 | 85 | 1007.1 |
| 20260903010054 | 58 | 359 | 0.0 | 1.0 | 0.04 | 0.14 | 0.14 | 85 | 1007.2 |
| 20260903005554 | 58 | 359 | 0.0 | 1.0 | 0.05 | 0.14 | 0.14 | 84 | 1007.3 |
| 20260903005053 | 57 | 359 | 0.0 | 1.0 | 0.04 | 0.13 | 0.13 | 84 | 1007.4 |
| 20260903004555 | 58 | 359 | 0.0 | 0.0 | 0.04 | 0.13 | 0.13 | 83 | 1007.4 |
| 20260903004053 | 58 | 359 | 0.0 | 0.0 | 0.05 | 0.13 | 0.13 | 83 | 1007.5 |
| 20260903003553 | 58 | 359 | 0.0 | 0.0 | 0.05 | 0.13 | 0.13 | 83 | 1007.5 |
| 20260903003053 | 58 | 359 | 0.0 | 1.0 | 0.05 | 0.13 | 0.13 | 83 | 1007.5 |
| 20260903002553 | 58 | 359 | 0.0 | 1.0 | 0.04 | 0.12 | 0.12 | 83 | 1007.4 |
| 20260903002053 | 58 | 359 | 0.0 | 1.0 | 0.04 | 0.12 | 0.12 | 83 | 1007.5 |
| 20260903001553 | 58 | 359 | 0.0 | 1.0 | 0.03 | 0.11 | 0.11 | 83 | 1007.5 |
| 20260903001052 | 58 | 359 | 0.0 | 4.0 | 0.02 | 0.10 | 0.10 | 82 | 1007.4 |
| 20260903000552 | 58 | 359 | 1.0 | 4.0 | 0.02 | 0.10 | 0.10 | 82 | 1007.5 |
| 20260903000052 | 59 | 1 | 0.0 | 2.0 | 0.01 | 0.09 | 0.09 | 82 | 1007.3 |
| 20260902235552 | 59 | 1 | 0.0 | 2.0 | 0.01 | 0.09 | 0.09 | 81 | 1007.3 |
| 20260902235051 | 59 | 1 | 0.0 | 1.0 | 0.01 | 0.09 | 0.09 | 81 | 1007.3 |
| 20260902234603 | 59 | 1 | 0.0 | 1.0 | 0.01 | 0.09 | 0.09 | 81 | 1007.3 |
| 20260902234051 | 60 | 1 | 0.0 | 1.0 | 0.00 | 0.08 | 0.08 | 83 | 1007.3 |
| 20260902233552 | 59 | 1 | 0.0 | 1.0 | 0.00 | 0.08 | 0.08 | 80 | 1007.3 |
| 20260902233051 | 59 | 1 | 0.0 | 1.0 | 0.00 | 0.08 | 0.08 | 81 | 1007.3 |
| 20260902232552 | 60 | 1 | 0.0 | 1.0 | 0.01 | 0.08 | 0.08 | 82 | 1007.4 |
| 20260902232050 | 60 | 360 | 0.0 | 3.0 | 0.01 | 0.08 | 0.08 | 83 | 1007.5 |
| 20260902231551 | 59 | 360 | 0.0 | 3.0 | 0.01 | 0.08 | 0.08 | 81 | 1007.5 |
| 20260902231051 | 60 | 360 | 0.0 | 1.0 | 0.01 | 0.08 | 0.08 | 82 | 1007.5 |
| 20260902230550 | 59 | 360 | 0.0 | 2.0 | 0.01 | 0.08 | 0.08 | 84 | 1007.6 |
| 20260902230050 | 59 | 360 | 0.0 | 2.0 | 0.01 | 0.08 | 0.08 | 84 | 1007.6 |
| 20260902225550 | 58 | 360 | 0.0 | 2.0 | 0.02 | 0.08 | 0.08 | 83 | 1007.6 |
| 20260902225050 | 58 | 360 | 0.0 | 2.0 | 0.02 | 0.08 | 0.08 | 84 | 1007.6 |
| 20260902224549 | 59 | 360 | 0.0 | 1.0 | 0.02 | 0.08 | 0.08 | 84 | 1007.5 |
| 20260902224049 | 58 | 360 | 0.0 | 1.0 | 0.02 | 0.08 | 0.08 | 84 | 1007.5 |
| 20260902223549 | 58 | 360 | 0.0 | 0.0 | 0.02 | 0.08 | 0.08 | 83 | 1007.5 |
| 20260902223053 | 58 | 360 | 0.0 | 0.0 | 0.03 | 0.08 | 0.08 | 83 | 1007.5 |
| 20260902222547 | 58 | 360 | 0.0 | 1.0 | 0.02 | 0.07 | 0.07 | 83 | 1007.5 |
| 20260902222048 | 58 | 360 | 0.0 | 3.0 | 0.03 | 0.07 | 0.07 | 83 | 1007.6 |
| 20260902221550 | 58 | 360 | 0.0 | 3.0 | 0.03 | 0.07 | 0.07 | 83 | 1007.5 |
| 20260902221051 | 59 | 6 | 0.0 | 1.0 | 0.03 | 0.07 | 0.07 | 83 | 1007.4 |
| 20260902220548 | 59 | 6 | 0.0 | 3.0 | 0.03 | 0.07 | 0.07 | 83 | 1007.4 |
| 20260902220048 | 58 | 356 | 0.0 | 4.0 | 0.04 | 0.07 | 0.07 | 83 | 1007.3 |
| 20260902215548 | 58 | 344 | 0.0 | 3.0 | 0.03 | 0.06 | 0.06 | 82 | 1007.2 |
| 20260902215047 | 58 | 345 | 0.0 | 4.0 | 0.03 | 0.06 | 0.06 | 82 | 1007.1 |
| 20260902214547 | 58 | 344 | 0.0 | 5.0 | 0.03 | 0.06 | 0.06 | 82 | 1007.0 |
| 20260902214049 | 58 | 31 | 0.0 | 5.0 | 0.04 | 0.06 | 0.06 | 82 | 1007.0 |
| 20260902213547 | 59 | 348 | 0.0 | 5.0 | 0.03 | 0.05 | 0.05 | 82 | 1007.2 |
| 20260902213046 | 59 | 349 | 0.0 | 4.0 | 0.03 | 0.05 | 0.05 | 82 | 1007.1 |
| 20260902212546 | 59 | 322 | 0.0 | 3.0 | 0.03 | 0.05 | 0.05 | 82 | 1007.1 |
| 20260902212046 | 60 | 321 | 0.0 | 2.0 | 0.03 | 0.04 | 0.04 | 82 | 1007.1 |
| 20260902211549 | 60 | 321 | 0.0 | 2.0 | 0.03 | 0.04 | 0.04 | 82 | 1007.1 |
| 20260902211046 | 59 | 321 | 0.0 | 1.0 | 0.03 | 0.04 | 0.04 | 82 | 1007.3 |
| 20260902210547 | 60 | 321 | 0.0 | 1.0 | 0.03 | 0.04 | 0.04 | 82 | 1007.3 |
| 20260902210046 | 60 | 321 | 0.0 | 0.0 | 0.02 | 0.03 | 0.03 | 83 | 1007.2 |
| 20260902205546 | 59 | 321 | 0.0 | 1.0 | 0.02 | 0.03 | 0.03 | 81 | 1007.2 |
| 20260902205044 | 60 | 321 | 0.0 | 2.0 | 0.03 | 0.03 | 0.03 | 81 | 1007.2 |
| 20260902204544 | 60 | 321 | 0.0 | 3.0 | 0.03 | 0.03 | 0.03 | 81 | 1007.1 |
| 20260902204044 | 60 | 191 | 0.0 | 3.0 | 0.02 | 0.02 | 0.02 | 80 | 1007.2 |
| 20260902203543 | 60 | 276 | 0.0 | 1.0 | 0.02 | 0.02 | 0.02 | 79 | 1007.3 |
| 20260902203043 | 60 | 276 | 0.0 | 3.0 | 0.02 | 0.02 | 0.02 | 78 | 1007.4 |
| 20260902202545 | 60 | 276 | 0.0 | 5.0 | 0.01 | 0.01 | 0.01 | 77 | 1007.4 |
| 20260902202044 | 61 | 276 | 0.0 | 5.0 | 0.01 | 0.01 | 0.01 | 74 | 1007.4 |
| 20260902201550 | 61 | 276 | 0.0 | 5.0 | 0.01 | 0.01 | 0.01 | 74 | 1007.4 |
| 20260902201044 | 61 | 276 | 0.0 | 5.0 | 0.01 | 0.01 | 0.01 | 73 | 1007.3 |
| 20260902200544 | 61 | 277 | 0.0 | 1.0 | 0.01 | 0.01 | 0.01 | 73 | 1007.4 |
| 20260902200042 | 61 | 277 | 0.0 | 2.0 | 0.01 | 0.01 | 0.01 | 73 | 1007.4 |
| 20260902195541 | 61 | 277 | 0.0 | 2.0 | 0.00 | 0.00 | 0.00 | 73 | 1007.4 |
| 20260902195041 | 61 | 277 | 0.0 | 1.0 | 0.00 | 0.00 | 0.00 | 74 | 1007.4 |
| 20260902194541 | 61 | 277 | 0.0 | 3.0 | 0.00 | 0.00 | 0.00 | 72 | 1007.3 |
| 20260902194041 | 62 | 277 | 0.0 | 5.0 | 0.00 | 0.00 | 0.00 | 72 | 1007.3 |
| 20260902193541 | 62 | 277 | 0.0 | 6.0 | 0.00 | 0.00 | 0.00 | 69 | 1007.3 |
| 20260902193039 | 62 | 277 | 0.0 | 11.0 | 0.00 | 0.00 | 0.00 | 68 | 1007.3 |
| 20260902192538 | 64 | 269 | 2.0 | 10.0 | 0.00 | 0.00 | 0.00 | 62 | 1007.3 |
| 20260902192039 | 65 | 237 | 3.0 | 5.0 | 0.00 | 0.00 | 0.00 | 58 | 1007.2 |
| 20260902191540 | 65 | 219 | 3.0 | 5.0 | 0.00 | 0.00 | 0.00 | 57 | 1007.1 |
| 20260902191038 | 65 | 209 | 0.0 | 3.0 | 0.00 | 0.00 | 0.00 | 53 | 1007.0 |
| 20260902190538 | 66 | 209 | 0.0 | 3.0 | 0.00 | 0.00 | 0.00 | 56 | 1006.9 |
| 20260902190039 | 66 | 206 | 1.0 | 5.0 | 0.00 | 0.00 | 0.00 | 55 | 1006.9 |
| 20260902185538 | 66 | 206 | 2.0 | 6.0 | 0.00 | 0.00 | 0.00 | 52 | 1007.0 |
| 20260902185037 | 66 | 186 | 3.0 | 7.0 | 0.00 | 0.00 | 0.00 | 51 | 1007.0 |
| 20260902184537 | 66 | 208 | 4.0 | 7.0 | 0.00 | 0.00 | 0.00 | 51 | 1006.9 |
| 20260902184039 | 66 | 201 | 3.0 | 6.0 | 0.00 | 0.00 | 0.00 | 51 | 1006.9 |
| 20260902183537 | 67 | 186 | 4.0 | 7.0 | 0.00 | 0.00 | 0.00 | 51 | 1006.9 |
| 20260902183039 | 67 | 186 | 5.0 | 7.0 | 0.00 | 0.00 | 0.00 | 51 | 1006.9 |
| 20260902182536 | 67 | 175 | 4.0 | 7.0 | 0.00 | 0.00 | 0.00 | 50 | 1006.9 |
| 20260902182037 | 67 | 172 | 1.0 | 6.0 | 0.00 | 0.00 | 0.00 | 49 | 1006.9 |
| 20260902181549 | 67 | 160 | 3.0 | 6.0 | 0.00 | 0.00 | 0.00 | 52 | 1006.8 |
| 20260902181036 | 66 | 148 | 1.0 | 5.0 | 0.00 | 0.00 | 0.00 | 52 | 1006.9 |
| 20260902180535 | 65 | 79 | 0.0 | 2.0 | 0.00 | 0.00 | 0.00 | 52 | 1007.0 |
| 20260902180035 | 65 | 78 | 0.0 | 3.0 | 0.00 | 0.00 | 0.00 | 51 | 1007.0 |
| 20260902175535 | 66 | 77 | 0.0 | 5.0 | 0.00 | 0.00 | 0.00 | 51 | 1007.0 |
| 20260902175036 | 67 | 112 | 1.0 | 5.0 | 0.00 | 0.00 | 0.00 | 48 | 1007.1 |
| 20260902174533 | 69 | 196 | 1.0 | 5.0 | 0.00 | 0.00 | 0.00 | 46 | 1007.2 |
| 20260902174037 | 70 | 205 | 3.0 | 5.0 | 0.00 | 0.00 | 0.00 | 44 | 1007.2 |
| 20260902173533 | 71 | 191 | 4.0 | 5.0 | 0.00 | 0.00 | 0.00 | 45 | 1007.2 |
| 20260902173042 | 69 | 196 | 2.0 | 5.0 | 0.00 | 0.00 | 0.00 | 48 | 1007.2 |
| 20260902172534 | 71 | 204 | 3.0 | 5.0 | 0.00 | 0.00 | 0.00 | 46 | 1007.2 |
| 20260902172031 | 71 | 206 | 3.0 | 4.0 | 0.00 | 0.00 | 0.00 | 46 | 1007.3 |
| 20260902171529 | 65 | 173 | 0.0 | 2.0 | 0.00 | 0.00 | 0.00 | 54 | 1007.3 |
| 20260902171028 | 65 | 173 | 0.0 | 3.0 | 0.00 | 0.00 | 0.00 | 55 | 1007.5 |
| 20260902170530 | 65 | 173 | 0.0 | 5.0 | 0.00 | 0.00 | 0.00 | 54 | 1007.6 |
| 20260902170028 | 67 | 173 | 2.0 | 5.0 | 0.00 | 0.00 | 0.00 | 54 | 1007.7 |
| 20260902165531 | 65 | 236 | 2.0 | 3.0 | 0.00 | 0.00 | 0.00 | 54 | 1007.6 |
| 20260902165026 | 63 | 236 | 0.0 | 1.0 | 0.00 | 0.00 | 0.00 | 57 | 1007.7 |
| 20260902164526 | 63 | 236 | 0.0 | 4.0 | 0.00 | 0.00 | 0.00 | 58 | 1007.8 |
| 20260902164025 | 64 | 236 | 1.0 | 5.0 | 0.00 | 0.00 | 0.00 | 56 | 1007.8 |
| 20260902163526 | 65 | 236 | 3.0 | 5.0 | 0.00 | 0.00 | 0.00 | 53 | 1007.8 |
| 20260902163025 | 66 | 223 | 2.0 | 5.0 | 0.00 | 0.00 | 0.00 | 54 | 1007.8 |
| 20260902162525 | 66 | 177 | 2.0 | 5.0 | 0.00 | 0.00 | 0.00 | 56 | 1007.9 |
| 20260902162023 | 65 | 159 | 2.0 | 7.0 | 0.00 | 0.00 | 0.00 | 53 | 1007.9 |
| 20260902161525 | 67 | 169 | 3.0 | 7.0 | 0.00 | 0.00 | 0.00 | 53 | 1008.1 |
| 20260902161025 | 67 | 186 | 5.0 | 7.0 | 0.00 | 0.00 | 0.00 | 53 | 1008.1 |
| 20260902160520 | 65 | 213 | 3.0 | 7.0 | 0.00 | 0.00 | 0.00 | 56 | 1008.2 |
| 20260902160020 | 65 | 233 | 5.0 | 7.0 | 0.00 | 0.00 | 0.00 | 57 | 1008.3 |
| 20260902155520 | 64 | 232 | 4.0 | 8.0 | 0.00 | 0.00 | 0.00 | 59 | 1008.2 |
| 20260902155019 | 64 | 239 | 5.0 | 8.0 | 0.00 | 0.00 | 0.00 | 59 | 1008.3 |
| 20260902154517 | 64 | 237 | 4.0 | 9.0 | 0.00 | 0.00 | 0.00 | 59 | 1008.4 |
| 20260902154017 | 63 | 250 | 4.0 | 7.0 | 0.00 | 0.00 | 0.00 | 60 | 1008.3 |
| 20260902153514 | 63 | 239 | 5.0 | 7.0 | 0.00 | 0.00 | 0.00 | 60 | 1008.3 |
| 20260902153014 | 63 | 240 | 5.0 | 8.0 | 0.00 | 0.00 | 0.00 | 61 | 1008.4 |
| 20260902152514 | 63 | 234 | 5.0 | 8.0 | 0.00 | 0.00 | 0.00 | 61 | 1008.5 |
| 20260902152013 | 63 | 225 | 5.0 | 7.0 | 0.00 | 0.00 | 0.00 | 61 | 1008.5 |
| 20260902151513 | 63 | 229 | 4.0 | 7.0 | 0.00 | 0.00 | 0.00 | 61 | 1008.4 |
| 20260902151010 | 62 | 244 | 5.0 | 7.0 | 0.00 | 0.00 | 0.00 | 64 | 1008.6 |
| 20260902150509 | 61 | 233 | 3.0 | 8.0 | 0.00 | 0.00 | 0.00 | 65 | 1008.6 |
| 20260902150014 | 61 | 239 | 5.0 | 8.0 | 0.00 | 0.00 | 0.00 | 64 | 1008.6 |
| 20260902145509 | 60 | 262 | 0.0 | 4.0 | 0.00 | 0.00 | 0.00 | 64 | 1008.6 |
| 20260902145011 | 60 | 262 | 0.0 | 7.0 | 0.00 | 0.00 | 0.00 | 64 | 1008.6 |
| 20260902144506 | 60 | 262 | 2.0 | 7.0 | 0.00 | 0.00 | 0.00 | 65 | 1008.7 |
| 20260902144006 | 60 | 191 | 1.0 | 6.0 | 0.00 | 0.00 | 0.00 | 65 | 1008.9 |
| 20260902143507 | 60 | 248 | 0.0 | 3.0 | 0.00 | 0.00 | 0.00 | 63 | 1008.8 |
| 20260902143006 | 60 | 248 | 0.0 | 0.0 | 0.00 | 0.00 | 0.00 | 64 | 1009.0 |
| 20260902142505 | 60 | 248 | 0.0 | 0.0 | 0.00 | 0.00 | 0.00 | 64 | 1009.1 |
| 20260902142004 | 60 | 248 | 0.0 | 3.0 | 0.00 | 0.00 | 0.00 | 64 | 1009.1 |
| 20260902141504 | 60 | 248 | 0.0 | 3.0 | 0.00 | 0.00 | 0.00 | 64 | 1009.1 |
| 20260902141004 | 60 | 248 | 0.0 | 3.0 | 0.00 | 0.00 | 0.00 | 63 | 1009.1 |
| 20260902140504 | 60 | 248 | 0.0 | 3.0 | 0.00 | 0.00 | 0.00 | 63 | 1009.1 |
| 20260902140004 | 60 | 325 | 0.0 | 5.0 | 0.00 | 0.00 | 0.00 | 61 | 1009.0 |
| 20260902135504 | 59 | 191 | 2.0 | 5.0 | 0.00 | 0.00 | 0.00 | 61 | 1009.1 |
| 20260902135101 | 59 | 233 | 1.0 | 5.0 | 0.00 | 0.00 | 0.00 | 61 | 1009.1 |
| 20260902134559 | 59 | 346 | 1.0 | 3.0 | 0.00 | 0.00 | 0.00 | 61 | 1009.1 |
| 20260902134059 | 58 | 350 | 0.0 | 1.0 | 0.00 | 0.00 | 0.00 | 62 | 1009.1 |
| 20260902133557 | 58 | 350 | 0.0 | 2.0 | 0.00 | 0.00 | 0.00 | 62 | 1009.1 |
| 20260902133106 | 57 | 350 | 0.0 | 3.0 | 0.00 | 0.00 | 0.00 | 63 | 1009.1 |
| 20260902132558 | 57 | 350 | 0.0 | 3.0 | 0.00 | 0.00 | 0.00 | 62 | 1009.2 |
| 20260902132056 | 57 | 350 | 0.0 | 4.0 | 0.00 | 0.00 | 0.00 | 61 | 1009.2 |
| 20260902131557 | 57 | 350 | 1.0 | 4.0 | 0.00 | 0.00 | 0.00 | 63 | 1009.2 |
| 20260902131056 | 57 | 350 | 0.0 | 3.0 | 0.00 | 0.00 | 0.00 | 63 | 1009.3 |
| 20260902130555 | 57 | 350 | 0.0 | 2.0 | 0.00 | 0.00 | 0.00 | 63 | 1009.3 |
| 20260902130054 | 57 | 350 | 0.0 | 2.0 | 0.00 | 0.00 | 0.00 | 62 | 1009.4 |
| 20260902125555 | 57 | 347 | 0.0 | 3.0 | 0.00 | 0.00 | 0.00 | 62 | 1009.4 |
| 20260902125055 | 58 | 347 | 0.0 | 6.0 | 0.00 | 0.00 | 0.00 | 61 | 1009.4 |
| 20260902124554 | 58 | 346 | 1.0 | 6.0 | 0.00 | 0.00 | 0.00 | 63 | 1009.3 |
| 20260902124052 | 58 | 46 | 1.0 | 4.0 | 0.00 | 0.00 | 0.00 | 60 | 1009.3 |
| 20260902123551 | 58 | 339 | 0.0 | 2.0 | 0.00 | 0.00 | 0.00 | 59 | 1009.3 |
| 20260902123106 | 58 | 339 | 0.0 | 2.0 | 0.00 | 0.00 | 0.00 | 59 | 1009.3 |
| 20260902122553 | 59 | 359 | 0.0 | 3.0 | 0.00 | 0.00 | 0.00 | 57 | 1009.3 |
| 20260902122051 | 60 | 342 | 0.0 | 4.0 | 0.00 | 0.00 | 0.00 | 56 | 1009.3 |
| 20260902121551 | 60 | 337 | 0.0 | 4.0 | 0.00 | 0.00 | 0.00 | 55 | 1009.3 |
| 20260902121050 | 60 | 346 | 0.0 | 5.0 | 0.00 | 0.00 | 0.00 | 55 | 1009.2 |
| 20260902120550 | 60 | 349 | 1.0 | 5.0 | 0.00 | 0.00 | 0.00 | 56 | 1009.1 |
| 20260902120048 | 60 | 346 | 1.0 | 5.0 | 0.00 | 0.00 | 0.00 | 56 | 1009.4 |
| 20260902115548 | 60 | 358 | 0.0 | 4.0 | 0.00 | 0.00 | 0.00 | 56 | 1009.4 |
| 20260902115049 | 60 | 345 | 1.0 | 5.0 | 0.00 | 0.00 | 0.00 | 56 | 1009.6 |
| 20260902114552 | 60 | 4 | 1.0 | 6.0 | 0.00 | 0.00 | 0.00 | 55 | 1009.6 |
| 20260902114045 | 60 | 358 | 1.0 | 6.0 | 0.00 | 0.00 | 0.00 | 55 | 1009.6 |
| 20260902113546 | 61 | 340 | 1.0 | 7.0 | 0.00 | 0.00 | 0.00 | 54 | 1009.5 |
| 20260902113045 | 60 | 346 | 3.0 | 7.0 | 0.00 | 0.00 | 0.00 | 54 | 1009.5 |
| 20260902113005 | 60 | 335 | 2.0 | 7.0 | 0.00 | 0.00 | 0.00 | 54 | 1009.5 |
| 20260902112544 | 60 | 343 | 0.0 | 3.0 | 0.00 | 0.00 | 0.00 | 54 | 1009.5 |
| 20260902112049 | 61 | 334 | 0.0 | 11.0 | 0.00 | 0.00 | 0.00 | 53 | 1009.6 |
| 20260902111547 | 61 | 344 | 2.0 | 10.0 | 0.00 | 0.00 | 0.00 | 53 | 1009.6 |
| 20260902111044 | 61 | 323 | 2.0 | 11.0 | 0.00 | 0.00 | 0.00 | 53 | 1009.4 |
| 20260902110544 | 61 | 312 | 5.0 | 13.0 | 0.00 | 0.00 | 0.00 | 53 | 1009.4 |
| 20260902110058 | 61 | 333 | 1.0 | 13.0 | 0.00 | 0.00 | 0.00 | 54 | 1009.4 |
| 20260902105543 | 61 | 341 | 3.0 | 8.0 | 0.00 | 0.00 | 0.00 | 53 | 1009.5 |
| 20260902105043 | 61 | 319 | 3.0 | 11.0 | 0.00 | 0.00 | 0.00 | 53 | 1009.5 |
| 20260902104542 | 61 | 2 | 4.0 | 11.0 | 0.00 | 0.00 | 0.00 | 54 | 1009.5 |
| 20260902104042 | 61 | 335 | 4.0 | 10.0 | 0.00 | 0.00 | 0.00 | 55 | 1009.7 |
| 20260902103540 | 61 | 191 | 2.0 | 8.0 | 0.00 | 0.00 | 0.00 | 56 | 1009.6 |
| 20260902103041 | 61 | 11 | 1.0 | 7.0 | 0.00 | 0.00 | 0.00 | 58 | 1009.7 |
| 20260902102542 | 61 | 4 | 1.0 | 8.0 | 0.00 | 0.00 | 0.00 | 58 | 1009.8 |
| 20260902102038 | 61 | 352 | 2.0 | 8.0 | 0.00 | 0.00 | 0.00 | 60 | 1009.9 |
| 20260902101540 | 60 | 352 | 0.0 | 4.0 | 0.00 | 0.00 | 0.00 | 61 | 1010.0 |
| 20260902101037 | 61 | 2 | 0.0 | 4.0 | 0.00 | 0.00 | 0.00 | 61 | 1010.0 |
| 20260902100541 | 61 | 44 | 1.0 | 10.0 | 0.00 | 0.00 | 0.00 | 60 | 1010.0 |
| 20260902100037 | 61 | 191 | 3.0 | 10.0 | 0.00 | 0.00 | 0.00 | 61 | 1010.0 |
| 20260902095542 | 60 | 191 | 0.0 | 9.0 | 0.00 | 0.00 | 0.00 | 62 | 1010.0 |
| 20260902095036 | 60 | 279 | 0.0 | 3.0 | 0.00 | 0.00 | 0.00 | 62 | 1010.0 |
| 20260902094543 | 60 | 341 | 0.0 | 7.0 | 0.00 | 0.00 | 0.00 | 62 | 1010.0 |
| 20260902094035 | 60 | 200 | 1.0 | 7.0 | 0.00 | 0.00 | 0.00 | 63 | 1010.0 |